CZ-6A DEB

基本信息
目录编号:
61161
目录名称:
CZ-6A DEB
国际标识:
2024-140RF
轨道中心:
EARTH
物体状态:
在轨
发射日期:
2024-08-06 UTC
轨道信息
数据来源: 国际轨道数据
星历时间: 2026-09-05T06:08:10+0800
半长轴: 7067.913km
偏心率: 0.012741
轨道倾角: 88.823°
近地点辐角: 9.100°
升交点赤经: 243.804°
平近点角: 351.248°
近地点: 599.723km
远地点: 779.829km
周期: 98.559分钟
每日圈数: 14.61053
详细信息
发射场:
TSC
轨道高度:
LEO
数据来源:
AOE Integration Group
参考系:
TEME
时间系统:
UTC
历元类型:
SGP4
2D轨道图
3D轨道图
轨道高度分析图
轨道倾角分析图
轨道综合分析图
查看轨道综合分析图